This demonstration page uses our WeatherBlox Daily Observations layout. Learn more.

Left ArrowRight Arrow

39.12711, -84.51439

Hourly Observations for June 5, 2018

Temp ( °F °C ) Dew Point ( °F °C ) Humidity (%) Winds ( mph kmh ) Pressure ( in mb ) Visibility ( mi km ) Precip ( " mm )
12:53 am 00:53 Clear 57 13.9 54 12.2 90 90 N N/A 29.93 1014 10 16 N/A
1:53 am 01:53 Clear 56 13.3 54 12.2 93 93 N N/A 29.93 1013 10 16 N/A
2:53 am 02:53 Clear 54 12.2 53 11.7 97 97 N N/A 29.92 1013 10 16 N/A
3:53 am 03:53 Clear 54 12.2 54 12.2 100 100 N N/A 29.92 1013 10 16 N/A
4:53 am 04:53 Clear 52 11.1 52 11.1 100 100 N N/A 29.91 1013 10 16 N/A
5:53 am 05:53 Clear 53 11.7 52 11.1 96 96 N N/A 29.92 1013 10 16 N/A
6:53 am 06:53 Partly Cloudy 52 11.1 52 11.1 100 100 VRB 3 6 29.93 1014 10 16 N/A
7:53 am 07:53 Partly Cloudy 61 16.1 57 13.9 87 87 N N/A 29.93 1014 10 16 N/A
8:53 am 08:53 Mostly Cloudy 64 17.8 59 15 84 84 N N/A 29.93 1013 10 16 N/A
9:53 am 09:53 Partly Cloudy 71 21.7 58 14.4 63 63 VRB 5 7 29.93 1014 10 16 N/A
10:53 am 10:53 Partly Cloudy 74 23.3 54 12.2 50 50 W 12 19 29.92 1013 10 16 N/A
11:53 am 11:53 Partly Cloudy 77 25 55 12.8 47 47 NW 7 11 29.90 1013 10 16 N/A
12:53 pm 12:53 Mostly Sunny 79 26.1 55 12.8 44 44 W 10 17 29.88 1012 10 16 N/A
1:53 pm 13:53 Mostly Sunny 79 26.1 56 13.3 45 45 W 14 22 29.85 1011 10 16 N/A
2:53 pm 14:53 Sunny 82 27.8 56 13.3 41 41 W 15 24 29.83 1010 10 16 N/A
3:53 pm 15:53 Sunny 83 28.3 55 12.8 38 38 WSW 12 19 29.82 1010 10 16 N/A
4:53 pm 16:53 Sunny 84 28.9 55 12.8 37 37 WSW 13 20 29.80 1009 10 16 N/A
5:53 pm 17:53 Mostly Sunny 83 28.3 56 13.3 40 40 WSW 15 24 29.79 1009 10 16 N/A
6:53 pm 18:53 Partly Cloudy 81 27.2 55 12.8 41 41 W 17 28 29.78 1009 10 16 N/A
7:53 pm 19:53 Mostly Cloudy 80 26.7 55 12.8 42 42 W 13 20 29.78 1008 10 16 N/A
8:53 pm 20:53 Mostly Cloudy 70 21.1 61 16.1 73 73 E 8 13 29.82 1010 10 16 N/A
9:53 pm 21:53 Mostly Clear 66 18.9 61 16.1 84 84 N N/A 29.83 1010 10 16 N/A
10:53 pm 22:53 Mostly Cloudy 64 17.8 63 17.2 96 96 S 3 6 29.84 1011 10 16 N/A
11:53 pm 23:53 Partly Cloudy 64 17.8 63 17.2 96 96 N N/A 29.83 1010 10 16 N/A

Powered by AerisWeather